Lapse_Rate
8.8 8.9 8.9 8.7 8.5 8.2 9.1 9.2 9.4 9.2 9.2 9.3 9.0 9.0 8.9 8.3 8.1 8.0 7.6 7.6 7.3 7.5 7.5 7.1 6.8 6.1 6.4 7.1 7.4 7.3 7.0 7.1 7.1 7.2 6.9 6.8 6.6 6.5 6.5 6.1 6.2 6.1 6.1 6.1
8.5 8.7 8.4 8.4 8.4 8.7 9.1 9.1 9.3 9.2 9.5 9.4 9.3 9.4 8.9 8.4 8.5 8.0 7.6 8.1 7.5 7.4 7.5 7.5 7.2 6.4 6.5 7.3 7.4 7.3 7.4 7.4 7.3 7.1 6.8 6.6 6.5 6.5 6.1 6.1 6.2 5.9 5.9 6.0
8.5 8.7 8.5 8.5 8.5 9.0 9.2 9.1 9.6 9.6 9.5 9.1 9.3 9.4 8.8 8.7 8.8 8.4 8.2 8.2 7.9 7.3 7.8 7.8 7.6 7.0 7.2 7.3 7.6 7.3 7.3 7.2 7.0 6.8 6.8 6.7 6.4 6.3 6.2 6.2 6.2 6.1 6.1 6.1
8.3 8.5 8.7 8.7 8.8 9.1 9.2 9.2 9.0 8.8 9.0 9.1 9.1 8.8 9.2 9.2 8.8 8.9 8.5 8.3 7.8 7.6 7.5 7.7 7.8 7.6 7.5 7.5 7.4 7.5 7.2 6.9 6.9 6.9 6.9 6.7 6.4 6.4 6.3 6.3 6.3 6.1 6.0 6.0
8.4 8.3 8.7 8.2 8.9 8.7 9.2 9.0 9.2 9.1 9.1 8.8 9.0 8.9 9.2 8.5 8.6 8.9 8.8 8.8 8.3 7.9 8.0 7.9 7.8 7.9 7.6 7.6 7.8 7.6 7.4 7.1 6.9 7.0 6.9 6.6 6.5 6.4 6.3 6.2 6.0 5.9 5.7 5.5
8.4 8.3 8.3 8.4 8.7 8.9 9.1 8.9 9.0 9.1 8.8 8.1 9.0 9.0 8.4 8.4 8.8 8.4 8.5 8.4 8.2 8.0 7.9 7.7 7.7 7.7 7.7 8.0 7.8 7.6 7.2 7.0 7.0 6.9 6.7 6.6 6.6 6.5 6.3 6.1 5.9 5.6 5.5 5.5
8.8 8.5 8.8 8.9 9.3 9.0 8.8 8.8 8.3 7.8 7.1 6.3 8.4 8.2 8.7 9.0 9.0 8.8 8.4 8.6 8.3 8.1 7.8 7.6 7.7 7.6 7.6 7.6 7.3 7.1 7.0 6.9 6.9 6.8 6.7 6.7 6.5 6.3 6.2 6.1 5.9 5.9 5.8 5.9
8.5 8.7 8.4 8.6 9.0 9.2 8.8 9.0 8.5 7.2 6.0 7.1 8.2 8.1 8.6 8.9 8.8 8.6 8.6 8.4 8.1 7.6 7.6 7.7 7.8 7.4 7.4 7.3 7.1 6.9 6.9 7.0 7.0 6.9 6.8 6.7 6.5 6.4 6.3 6.3 6.1 6.1 6.1 6.1
7.9 8.3 8.7 8.6 9.1 9.1 9.0 8.9 9.2 8.6 7.2 6.7 8.6 9.1 8.7 8.7 8.8 8.5 8.2 8.0 7.8 7.6 7.7 7.6 7.4 7.4 7.4 7.2 6.9 6.8 6.9 6.9 6.9 6.9 6.8 6.7 6.6 6.5 6.5 6.4 6.4 6.5 6.3 6.0
8.6 8.5 7.9 7.9 8.5 8.9 9.1 9.0 9.1 8.9 7.0 6.9 8.6 9.0 8.6 8.6 8.5 8.6 8.5 7.9 7.5 7.5 7.6 7.3 7.2 7.4 7.4 7.1 6.9 6.8 6.8 6.9 7.0 7.0 6.9 6.8 6.7 6.7 6.6 6.5 6.5 6.5 6.3 5.8
8.7 8.5 8.1 7.8 8.3 8.9 8.8 8.9 8.8 8.9 8.8 6.3 5.8 8.4 8.9 8.9 8.6 8.3 7.9 7.8 7.8 7.7 7.5 7.2 7.1 7.2 7.4 7.6 7.3 6.9 6.8 6.9 7.1 7.3 7.1 6.9 6.7 6.6 6.4 6.5 6.5 6.5 6.0 5.8
7.9 8.6 7.8 7.8 8.7 8.9 8.9 8.5 8.4 8.6 8.5 8.4 8.0 8.3 8.7 8.7 8.8 8.8 8.4 8.0 7.7 7.6 7.5 7.3 7.1 7.0 7.1 7.2 7.4 7.2 6.9 6.7 6.9 7.2 7.1 6.8 6.6 6.4 6.6 6.6 6.5 6.3 5.5 5.3
8.8 8.4 8.5 8.7 8.6 8.5 8.8 8.9 9.0 8.7 8.5 8.3 6.9 8.1 8.5 8.6 8.6 8.6 8.4 8.2 7.8 7.7 7.5 7.4 7.1 7.0 7.1 7.1 7.1 7.0 6.8 6.7 6.7 7.0 7.1 6.8 6.3 6.3 6.5 6.5 6.3 5.6 4.9 4.7
8.6 8.4 8.4 8.4 8.6 8.8 8.5 8.7 8.5 8.8 8.4 8.3 8.1 8.2 8.6 8.7 8.5 8.2 7.9 7.7 7.9 7.7 7.5 7.3 7.0 6.8 6.6 6.5 6.6 6.8 7.0 7.2 7.0 6.9 6.9 6.3 6.0 6.2 6.3 6.3 5.7 4.3 3.9 3.9
8.3 8.3 8.2 8.3 8.3 8.5 8.3 8.4 8.5 8.4 8.7 8.4 8.5 8.3 8.6 8.5 8.4 8.2 7.6 7.4 7.4 7.7 7.6 7.3 7.1 7.0 6.8 6.8 6.8 7.2 7.3 7.2 6.8 7.0 6.8 6.0 6.0 6.0 6.1 5.4 4.6 4.2 3.9 3.5
7.9 7.9 7.9 7.8 8.0 8.1 8.1 8.3 8.3 8.3 8.6 8.5 8.3 8.4 8.6 8.3 8.3 8.1 7.9 7.8 7.5 7.5 8.0 7.8 7.4 7.1 7.2 7.2 7.1 7.2 7.0 6.9 6.7 6.8 6.3 5.8 5.9 6.0 6.1 5.4 4.7 4.1 3.9 3.8
7.9 7.7 7.6 7.4 7.6 7.7 7.7 8.2 8.5 8.3 8.5 8.5 8.4 8.4 8.5 8.5 8.0 7.7 7.6 7.7 7.7 7.6 7.6 7.9 7.7 7.6 7.3 7.2 7.0 6.9 6.8 6.8 6.7 6.3 6.0 5.9 6.0 5.7 5.7 5.6 4.8 4.3 3.8 4.3
7.8 7.8 7.3 7.1 7.2 5.6 7.9 7.9 8.1 8.2 8.0 8.0 8.0 7.8 7.9 7.9 7.8 7.7 7.5 7.3 7.3 7.2 7.1 7.3 7.3 7.4 7.1 7.0 6.9 6.7 6.7 6.6 6.2 5.9 5.8 5.9 5.7 5.7 5.4 5.3 4.6 4.7 4.6 4.2
7.8 7.6 7.3 7.0 7.0 7.4 7.9 7.8 8.0 8.2 7.8 7.6 7.7 7.6 7.8 7.8 7.6 7.4 7.3 7.2 7.1 6.9 6.6 6.4 6.6 6.9 7.0 6.9 6.7 6.7 6.5 6.4 6.2 6.2 6.2 5.9 5.9 6.0 5.4 5.0 5.0 5.3 4.5 4.3
7.4 7.3 7.1 6.7 6.8 4.9 7.3 7.6 7.6 7.8 7.2 7.2 7.5 7.6 7.4 7.4 7.5 7.4 7.1 6.8 6.6 6.6 6.4 6.4 6.7 6.7 6.7 6.6 6.5 6.6 6.5 6.3 6.2 6.2 6.4 6.3 6.4 5.5 5.0 5.3 5.7 5.2 5.1 5.4
6.9 6.7 6.7 6.8 6.8 6.9 7.0 7.3 7.5 7.2 6.9 6.6 6.7 6.8 6.9 6.8 6.8 6.6 6.3 6.2 6.1 6.7 6.6 6.5 6.7 6.7 6.4 6.4 6.4 6.3 6.3 6.4 6.5 6.8 6.6 6.7 5.7 5.7 5.7 5.6 5.0 4.9 5.3 5.7
7.2 6.9 6.7 6.4 6.4 6.4 6.9 6.8 6.8 6.9 6.7 6.7 6.8 6.7 6.5 6.5 6.6 6.6 6.1 5.9 6.2 6.7 7.0 6.7 6.3 6.1 6.2 6.3 6.5 6.6 6.7 6.8 6.7 7.0 6.7 6.0 6.1 6.1 5.9 5.7 5.3 5.6 5.8 5.8
7.1 7.1 7.2 7.1 7.0 6.9 6.6 6.7 6.6 6.4 6.6 6.6 6.5 6.4 6.3 6.3 6.0 5.8 6.2 6.3 6.4 6.4 6.3 6.1 6.0 5.9 6.1 6.2 6.2 6.1 6.0 6.2 6.2 6.1 5.9 5.8 5.9 5.9 5.7 5.5 5.7 6.1 6.0 6.3
7.0 6.9 6.8 6.9 6.9 6.7 6.4 6.3 6.1 6.1 6.5 6.5 6.4 6.1 6.0 6.0 6.2 6.2 6.1 6.0 5.8 5.6 5.5 5.5 5.6 5.8 5.8 5.9 5.7 5.4 5.5 5.8 5.8 5.6 5.5 5.6 5.8 5.6 5.5 5.9 6.1 6.3 6.8 6.9
7.1 7.0 6.9 6.9 6.9 6.6 6.5 6.2 6.1 6.1 6.2 6.1 6.0 6.0 6.0 6.1 6.1 6.1 6.0 5.8 5.7 5.3 5.4 5.4 5.2 5.1 5.1 5.3 5.5 5.5 5.5 5.5 5.5 5.5 5.5 5.3 5.4 5.7 6.1 6.4 6.8 7.0 7.0 6.9
7.1 6.9 7.0 6.8 6.8 6.7 6.7 6.8 6.6 6.5 6.4 6.0 6.0 6.0 6.1 6.2 6.0 5.8 5.8 5.5 5.5 5.8 5.9 5.5 5.5 5.4 5.2 5.3 5.4 5.3 5.3 5.4 5.4 5.2 5.1 5.4 5.8 6.2 6.7 6.9 7.1 6.9 7.0 6.9
Wind_Speed
5 2 4 5 4 7 7 6 6 7 9 7 8 9 16 15 17 18 11 5 2 10 8 8 7 10 13 15 16 14 16 12 9 4 4 3 4 3 3 12 18 15 13 12
2 3 1 5 12 9 7 11 11 6 6 4 5 7 10 20 14 20 16 11 11 5 8 8 8 9 17 15 13 11 14 14 9 7 5 4 4 3 4 12 15 15 14 12
3 5 6 7 13 12 1 2 5 5 3 1 5 2 4 7 7 17 15 18 17 12 13 9 9 9 13 14 12 12 12 12 9 8 5 4 6 5 3 4 4 8 9 9
3 6 2 8 14 9 5 2 3 2 2 2 5 2 4 4 4 7 18 19 19 16 12 11 10 9 12 12 7 12 11 10 8 8 10 14 6 4 3 4 3 6 12 11
7 5 5 7 8 4 5 5 1 3 1 4 4 2 5 3 4 3 5 9 11 17 16 13 10 12 12 13 12 9 7 7 6 8 9 8 9 6 4 5 7 5 8 11
7 6 3 4 6 2 6 3 3 4 3 1 4 5 4 7 20 5 4 7 9 12 10 9 12 12 10 7 8 9 9 7 9 10 8 11 13 8 6 4 4 3 3 6
6 8 2 2 6 6 1 4 3 4 5 3 15 0 9 16 12 10 12 9 4 13 12 14 13 9 8 10 9 8 10 9 10 11 9 9 9 9 8 6 4 4 2 2
5 5 4 5 5 5 3 6 4 5 1 5 7 5 5 15 17 13 13 6 6 10 12 13 13 11 9 9 8 8 10 9 9 8 8 7 8 5 5 5 4 3 3 2
4 1 6 9 8 1 4 2 6 6 3 2 5 6 5 9 5 6 8 8 8 10 10 12 11 12 10 9 8 8 8 8 8 8 7 6 6 6 6 6 5 3 3 3
5 3 2 9 17 13 3 3 4 3 5 4 4 3 3 5 7 10 9 10 10 11 12 13 12 13 11 11 8 8 8 10 7 8 6 5 6 6 6 6 5 5 5 3
5 5 5 5 8 9 1 2 3 3 5 4 1 4 3 5 5 9 12 15 15 15 14 15 12 14 14 12 9 9 9 10 9 8 6 7 5 5 5 5 5 5 4 3
12 6 5 13 11 8 4 6 5 5 4 2 4 5 3 7 5 7 8 13 14 16 15 15 15 15 14 13 12 10 10 12 10 8 7 7 6 6 6 5 5 7 5 3
3 0 3 8 5 5 4 5 4 4 3 5 5 5 1 5 4 3 6 7 10 14 13 14 12 16 16 13 13 11 12 12 12 10 8 7 6 6 6 6 5 5 5 4
6 2 6 6 7 3 3 4 5 5 4 3 5 5 11 7 8 7 6 4 9 13 15 14 13 15 15 15 14 13 10 13 12 10 9 8 7 7 5 5 5 5 4 5
5 4 1 3 5 5 2 4 6 5 6 7 8 7 11 1 4 5 8 5 4 7 3 8 14 12 12 12 11 10 9 12 11 9 8 8 6 7 6 4 4 2 3 4
1 1 2 2 6 7 4 7 7 7 5 2 3 6 4 7 8 8 7 6 6 7 7 6 9 11 13 12 11 11 11 10 12 8 7 6 7 8 7 4 1 4 5 6
5 5 3 3 4 6 6 7 6 6 5 3 5 6 5 8 9 7 7 8 5 7 7 7 7 9 9 11 13 12 12 11 9 7 7 8 8 7 5 5 4 5 6 5
5 4 3 3 3 2 8 5 5 5 3 6 8 10 8 6 9 12 8 9 9 7 7 6 3 5 7 7 8 8 10 10 9 8 9 7 9 7 7 6 5 6 4 6
3 4 2 4 3 5 8 4 3 3 5 6 8 7 6 6 7 7 9 8 6 5 3 1 2 4 6 8 7 10 9 9 12 11 11 11 10 8 5 3 5 5 5 5
6 5 4 2 4 6 6 2 3 4 2 5 8 8 6 5 5 3 4 6 8 11 12 13 15 14 13 8 14 16 14 14 12 10 12 11 8 2 3 4 4 4 4 5
3 3 5 2 2 7 6 5 1 6 6 3 4 5 7 4 4 3 1 6 13 15 14 14 17 15 14 14 17 17 15 14 10 11 11 4 2 2 3 4 2 3 5 6
6 6 3 3 2 6 5 3 6 6 3 5 4 3 5 5 7 8 8 12 15 14 14 14 15 14 12 14 16 15 13 9 6 6 4 2 1 3 4 3 3 3 5 6
1 6 5 6 5 7 2 7 6 6 5 4 6 6 7 8 6 8 12 14 14 14 12 11 12 12 10 10 10 11 8 6 5 3 3 2 3 4 4 4 4 4 5 2
2 4 3 5 3 4 5 5 8 9 9 10 11 10 8 7 12 13 12 12 11 11 10 9 10 10 7 6 5 6 5 4 3 4 2 4 4 5 5 4 4 4 3 2
5 5 5 2 3 9 11 7 9 12 12 15 16 14 12 14 12 12 11 11 9 9 8 6 7 6 5 4 4 4 4 3 1 3 4 5 4 5 5 5 4 4 5 5
3 6 4 4 2 9 4 8 12 15 13 12 14 15 14 13 12 11 9 7 6 6 5 6 6 5 3 1 1 2 2 2 3 4 3 4 4 4 4 4 5 6 8 9
Wind_Direction
216 116 220 245 261 274 224 239 271 259 208 167 164 161 141 149 147 179 221 250 153 146 158 148 132 136 139 142 147 144 139 140 130 154 139 153 163 136 128 107 98 83 93 77
235 203 186 28 248 260 283 338 266 249 151 147 120 202 183 160 177 181 174 147 224 209 157 145 137 112 144 149 151 139 142 144 156 163 181 160 160 144 139 109 104 97 88 87
146 245 309 277 274 274 155 265 293 137 119 342 14 75 178 206 163 155 166 176 193 187 162 162 149 121 132 138 148 146 153 160 164 181 128 106 97 94 91 99 108 125 123 92
245 252 261 282 285 244 246 126 315 128 25 170 78 291 14 333 171 194 171 186 192 169 166 162 152 125 137 140 155 161 173 171 177 156 139 146 148 147 156 133 121 102 102 91
243 261 271 294 244 72 253 180 225 294 310 78 327 128 239 330 295 257 279 181 165 171 167 160 149 144 153 156 155 183 157 155 146 161 135 129 123 117 105 106 115 99 85 79
215 251 139 238 280 166 282 328 339 343 101 109 221 145 225 191 214 188 246 192 157 165 145 138 145 144 143 129 128 134 129 105 96 95 102 117 123 125 113 116 107 95 90 78
272 262 299 241 308 294 64 19 4 1 12 236 10 64 239 219 219 202 199 205 155 142 136 130 129 128 116 121 129 127 115 114 108 106 105 110 121 120 123 127 125 101 85 64
197 325 10 16 249 192 233 150 165 166 175 301 350 233 235 217 203 200 204 196 153 128 135 137 139 130 130 130 134 123 125 125 118 116 116 114 119 123 124 122 115 107 100 99
133 124 350 297 323 269 293 337 175 101 7 59 223 254 354 106 137 186 196 168 178 138 136 141 142 141 142 145 155 144 133 126 125 121 115 113 116 117 128 122 103 114 98 73
189 128 31 307 302 282 191 253 23 24 143 241 285 324 197 123 167 207 181 198 168 152 149 156 157 156 158 157 159 152 141 143 139 128 126 130 135 140 137 129 129 123 110 74
141 111 255 192 234 234 223 256 221 142 132 169 174 280 175 105 146 146 187 177 172 169 165 168 166 166 164 163 159 159 145 140 136 136 138 148 164 158 149 148 152 144 130 129
220 167 149 210 232 196 183 187 182 124 258 185 147 270 196 142 168 159 174 183 178 175 175 171 165 163 166 166 166 161 150 147 151 150 149 168 170 179 170 175 167 154 156 168
169 214 53 344 343 345 250 225 227 127 91 186 133 257 209 169 171 151 170 148 176 178 176 175 162 166 168 168 169 163 153 155 158 155 157 172 186 188 185 182 168 163 181 176
102 162 150 187 216 229 299 252 275 158 114 205 205 265 297 256 198 202 180 153 163 181 182 181 169 172 170 172 167 165 156 158 160 158 167 174 184 188 181 154 160 193 186 168
115 160 267 298 323 337 290 248 296 264 208 152 233 217 257 2 137 200 199 185 155 109 193 193 172 169 169 166 163 169 165 160 157 156 161 184 183 152 151 113 79 60 179 210
71 202 92 303 339 32 355 327 319 311 309 311 257 249 229 178 115 84 85 105 97 55 50 63 171 167 174 171 168 176 168 158 154 154 166 134 123 125 110 122 51 280 268 264
125 124 95 235 355 16 343 241 235 247 276 257 290 276 351 59 60 63 61 59 86 88 73 62 140 175 166 163 171 175 166 157 147 145 146 130 120 106 106 53 357 310 283 282
128 115 100 182 38 48 240 261 141 167 31 43 76 71 75 82 63 38 39 83 57 59 54 55 77 137 172 172 171 146 146 144 139 127 106 103 84 80 54 19 329 317 317 287
124 124 102 135 183 287 318 15 64 107 53 31 76 63 78 72 69 21 30 45 52 45 25 22 186 193 176 163 134 124 114 107 99 93 83 73 66 51 30 336 293 279 290 296
54 83 114 123 143 200 236 147 24 49 87 21 58 34 41 52 57 280 35 43 33 37 50 56 49 50 43 49 95 91 89 88 80 79 78 63 51 324 308 280 286 257 280 286
43 12 145 124 169 289 253 149 123 93 224 98 66 64 49 86 172 223 12 76 62 74 67 62 57 57 50 59 78 81 79 69 67 73 74 66 263 320 270 265 284 296 302 300
161 143 186 91 102 279 193 66 135 199 104 90 57 67 56 35 25 37 56 74 80 79 72 68 72 63 63 71 78 75 72 77 79 77 84 109 289 296 283 294 309 330 316 308
104 173 176 162 210 228 149 133 157 128 129 88 77 54 80 70 40 43 77 86 82 85 84 78 82 80 70 74 92 104 132 126 121 149 211 9 319 282 291 281 275 296 285 287
83 131 108 77 270 189 203 77 83 87 87 72 76 71 66 66 80 80 78 75 76 80 82 87 89 92 97 83 70 82 74 75 59 37 333 268 269 275 275 270 261 251 242 241
198 120 158 225 290 91 50 62 79 74 70 83 68 55 64 84 73 83 80 77 80 83 87 91 91 86 81 77 71 59 61 55 323 290 290 279 264 268 271 261 245 242 232 201
172 173 148 206 161 106 84 65 85 79 70 75 85 66 56 73 80 83 78 80 84 79 74 75 77 80 83 77 252 255 223 251 253 262 263 256 259 260 263 268 282 269 232 248